EW0898 Weather Reports


Display with metric or nautical units.
time (UTC)temp
F
wind
direction
speed
MPH
gust
MPH
rain 1hr
in
rain 24hr
in
rain mn
in
humidity
%
barometer
mb
20260506221003 48 1 2.0 5.0 0.00 0.00 0.00 77 1012.3
20260506220218 48 3 3.0 7.0 0.00 0.00 0.00 76 1012.3
20260506215003 49 12 3.0 7.0 0.00 0.00 0.00 76 1012.0
20260506214003 49 8 3.0 6.0 0.00 0.00 0.00 76 1012.0
20260506213003 49 12 3.0 5.0 0.00 0.00 0.00 75 1012.0
20260506212003 50 359 3.0 6.0 0.00 0.00 0.00 74 1011.9
20260506211003 50 13 4.0 9.0 0.00 0.00 0.00 73 1011.7
20260506210218 51 12 5.0 9.0 0.00 0.00 0.00 73 1011.7
20260506205003 51 14 5.0 10.0 0.00 0.00 0.00 74 1011.6
20260506204003 51 5 4.0 10.0 0.00 0.00 0.00 75 1011.7
20260506203219 51 5 2.0 9.0 0.00 0.00 0.00 77 1011.5
20260506202003 51 11 2.0 4.0 0.00 0.00 0.00 77 1011.6
20260506201003 51 48 1.0 4.0 0.00 0.00 0.00 77 1011.5
20260506200003 51 58 1.0 3.0 0.00 0.00 0.00 78 1011.3
20260506195219 51 58 2.0 3.0 0.00 0.00 0.00 78 1011.3
20260506194003 51 59 1.0 2.0 0.00 0.00 0.00 76 1011.2
20260506193003 51 59 1.0 2.0 0.00 0.00 0.00 76 1011.1
20260506192003 50 59 0.0 2.0 0.00 0.00 0.00 80 1010.9
20260506191003 50 0 0.0 0.0 0.00 0.00 0.00 79 1010.8
20260506190004 51 0 0.0 0.0 0.00 0.00 0.00 80 1010.6
20260506185003 51 0 0.0 0.0 0.00 0.00 0.00 79 1010.6
20260506184217 51 0 0.0 0.0 0.00 0.00 0.00 77 1010.7
20260506183003 52 59 0.0 1.0 0.00 0.00 0.00 74 1010.5
20260506182217 52 59 1.0 3.0 0.00 0.00 0.00 70 1010.4
20260506181003 52 61 2.0 3.0 0.00 0.00 0.00 70 1010.3
20260506180004 53 61 0.0 3.0 0.00 0.00 0.00 70 1010.3
20260506175218 53 61 1.0 3.0 0.00 0.00 0.00 70 1010.2
20260506174216 53 60 1.0 3.0 0.00 0.00 0.00 68 1010.0
20260506173218 53 60 2.0 5.0 0.00 0.00 0.00 67 1009.8
20260506172003 53 45 3.0 5.0 0.00 0.00 0.00 68 1009.7
20260506171218 53 49 2.0 5.0 0.00 0.00 0.00 68 1009.8
20260506170003 53 58 3.0 6.0 0.00 0.00 0.00 67 1009.7
20260506165003 53 67 2.0 5.0 0.00 0.00 0.00 68 1009.7
20260506164216 53 64 2.0 6.0 0.00 0.00 0.00 67 1009.7
20260506163003 53 87 2.0 6.0 0.00 0.00 0.00 65 1009.8
20260506162003 53 48 3.0 8.0 0.00 0.00 0.00 67 1009.7
20260506161003 54 67 3.0 8.0 0.00 0.00 0.00 65 1009.7
20260506160003 54 52 4.0 9.0 0.00 0.00 0.00 66 1009.6
20260506155218 54 49 3.0 9.0 0.00 0.00 0.00 65 1009.7
20260506154003 53 52 2.0 6.0 0.00 0.00 0.00 67 1009.7
20260506153003 53 60 3.0 8.0 0.00 0.00 0.00 66 1009.6
20260506152003 53 70 2.0 7.0 0.00 0.00 0.00 66 1009.6
20260506151003 53 57 2.0 8.0 0.00 0.00 0.00 65 1009.5
20260506150003 53 53 4.0 9.0 0.00 0.00 0.00 64 1009.4
20260506145003 53 51 3.0 10.0 0.00 0.00 0.00 65 1009.6
20260506144003 53 63 3.0 7.0 0.00 0.00 0.00 66 1009.4
20260506143003 53 74 5.0 12.0 0.00 0.00 0.00 64 1009.4
20260506142003 53 70 5.0 12.0 0.00 0.00 0.00 64 1009.4
20260506141217 53 69 4.0 13.0 0.00 0.00 0.00 64 1009.4
20260506140003 53 62 5.0 11.0 0.00 0.00 0.00 67 1009.3
20260506135003 53 50 7.0 14.0 0.00 0.00 0.00 67 1009.3
20260506134003 53 48 8.0 17.0 0.00 0.00 0.00 67 1009.4
20260506133003 53 45 7.0 15.0 0.00 0.00 0.00 68 1009.3
20260506132219 53 48 7.0 15.0 0.00 0.00 0.00 68 1009.3
20260506131003 53 46 9.0 16.0 0.00 0.00 0.00 69 1009.3
20260506130003 53 50 8.0 16.0 0.00 0.00 0.00 70 1009.2
20260506125216 52 50 8.0 16.0 0.00 0.00 0.00 70 1009.1
20260506124003 52 38 9.0 17.0 0.00 0.00 0.00 69 1009.1
20260506123003 53 33 10.0 16.0 0.00 0.00 0.00 68 1009.1
20260506122003 52 38 9.0 16.0 0.00 0.00 0.00 66 1009.0
20260506121003 53 27 9.0 17.0 0.00 0.00 0.00 65 1008.9
20260506120003 53 28 9.0 16.0 0.00 0.00 0.00 64 1008.9
20260506115003 53 34 9.0 15.0 0.00 0.00 0.00 65 1008.8
20260506114003 53 32 9.0 16.0 0.00 0.00 0.00 66 1008.8
20260506113003 52 18 7.0 13.0 0.00 0.00 0.00 68 1008.8
20260506112003 52 19 7.0 13.0 0.00 0.00 0.00 68 1008.7
20260506111003 52 12 7.0 13.0 0.00 0.00 0.00 66 1008.8
20260506110218 52 12 8.0 13.0 0.00 0.00 0.00 66 1008.7
20260506105003 52 17 9.0 17.0 0.00 0.00 0.00 65 1008.8
20260506104218 52 24 9.0 15.0 0.00 0.00 0.00 64 1008.6
20260506103003 52 19 8.0 16.0 0.00 0.00 0.00 66 1008.5
20260506102003 53 26 8.0 14.0 0.00 0.00 0.00 66 1008.6
20260506101215 53 27 7.0 13.0 0.00 0.00 0.00 66 1008.5
20260506100217 53 29 9.0 18.0 0.00 0.00 0.00 65 1008.4
20260506095003 53 31 7.0 17.0 0.00 0.00 0.00 67 1008.4
20260506094217 52 32 8.0 14.0 0.00 0.00 0.00 66 1008.3
20260506093003 53 32 7.0 16.0 0.00 0.00 0.00 68 1008.3
20260506092003 53 27 8.0 15.0 0.00 0.00 0.00 69 1008.2
20260506091003 52 35 6.0 15.0 0.00 0.00 0.00 72 1008.2
20260506090003 52 27 6.0 12.0 0.00 0.00 0.00 70 1008.2
20260506085003 52 34 7.0 12.0 0.00 0.00 0.00 70 1008.0
20260506084003 52 30 7.0 12.0 0.00 0.00 0.00 70 1007.9
20260506083003 52 38 6.0 13.0 0.00 0.00 0.00 71 1007.9
20260506082003 51 34 7.0 16.0 0.00 0.00 0.00 70 1007.9
20260506081003 51 20 6.0 11.0 0.00 0.00 0.00 72 1007.9
20260506073219 51 46 6.0 11.0 0.00 0.00 0.00 65 1007.8
20260506072003 51 39 7.0 15.0 0.00 0.00 0.00 67 1007.8
20260506071003 51 30 7.0 14.0 0.00 0.00 0.00 73 1007.7
20260506062003 50 16 7.0 13.0 0.00 0.00 0.00 80 1007.3
20260506061003 50 21 5.0 16.0 0.00 0.00 0.00 81 1007.3
20260506051003 50 7 4.0 9.0 0.00 0.00 0.00 83 1007.1
20260506045003 50 17 4.0 9.0 0.00 0.00 0.00 83 1007.1
20260506044219 50 10 3.0 8.0 0.00 0.00 0.00 82 1007.0
20260506043003 50 2 3.0 6.0 0.00 0.00 0.00 82 1007.1
20260506042003 50 19 3.0 9.0 0.00 0.00 0.00 82 1007.0
20260506041217 50 18 3.0 8.0 0.00 0.00 0.00 82 1007.1
20260506040003 50 18 3.0 8.0 0.00 0.00 0.00 82 1007.1
20260506035003 50 357 3.0 10.0 0.00 0.00 0.00 82 1007.2
20260506034003 50 16 3.0 8.0 0.00 0.00 0.00 82 1007.2
20260506033003 50 10 3.0 8.0 0.00 0.00 0.00 81 1007.3
20260506032003 50 9 3.0 5.0 0.00 0.00 0.00 81 1007.4
20260506031003 50 360 3.0 8.0 0.00 0.00 0.00 81 1007.4
20260506030219 50 357 3.0 8.0 0.00 0.00 0.00 81 1007.6
20260506025003 50 7 3.0 8.0 0.00 0.00 0.00 81 1007.7
20260506024003 50 16 3.0 8.0 0.00 0.00 0.00 80 1007.7
20260506023216 50 9 4.0 8.0 0.00 0.00 0.00 80 1007.7
20260506022003 50 13 4.0 8.0 0.00 0.00 0.00 81 1007.8
20260506021003 50 21 4.0 10.0 0.00 0.00 0.00 81 1007.8
20260506020003 50 20 3.0 8.0 0.00 0.00 0.00 82 1007.8
20260506015003 50 19 3.0 8.0 0.00 0.00 0.00 82 1008.0
20260506014003 50 16 3.0 6.0 0.00 0.00 0.00 82 1008.1
20260506013216 50 15 5.0 11.0 0.00 0.00 0.00 82 1008.1
20260506012003 50 12 4.0 9.0 0.00 0.00 0.00 82 1008.2
20260506011003 50 17 4.0 9.0 0.00 0.00 0.00 81 1008.2
20260506010003 50 8 5.0 9.0 0.00 0.00 0.00 80 1008.3
20260506005003 50 10 4.0 10.0 0.00 0.00 0.00 79 1008.4
20260506004218 50 19 3.0 8.0 0.00 0.00 0.00 79 1008.4
20260506003003 50 22 5.0 11.0 0.00 0.00 0.00 78 1008.4
20260506002003 50 18 6.0 10.0 0.00 0.00 0.00 78 1008.6
20260506001216 50 19 7.0 13.0 0.00 0.00 0.00 78 1008.5
20260506000219 50 19 8.0 14.0 0.00 0.00 0.00 78 1008.6
20260505235003 50 17 6.0 13.0 0.00 0.00 0.00 78 1008.7
20260505234217 50 14 6.0 12.0 0.00 0.00 0.00 78 1008.7
20260505233003 50 17 8.0 15.0 0.00 0.00 0.00 78 1008.8
20260505232003 50 21 7.0 14.0 0.00 0.00 0.00 78 1008.9
20260505231003 50 14 6.0 12.0 0.00 0.00 0.00 78 1008.8
20260505230003 50 22 5.0 12.0 0.00 0.00 0.00 78 1009.0
20260505225003 50 15 8.0 14.0 0.00 0.00 0.00 78 1009.1
20260505224217 50 17 7.0 12.0 0.00 0.00 0.00 79 1009.0
20260505223003 51 10 6.0 12.0 0.00 0.00 0.00 79 1009.1
20260505222003 51 14 5.0 9.0 0.00 0.00 0.00 80 1009.3